Location: Givhans Ferry State Park
(33.0284°N, 80.3868°W)
Time: 09:34:10
(UTC-04:00)

Daily predictions for brighter satellites

Satellite Brightness Start Highest point End
(mag) Time Altitude Azimuth Time Altitude Azimuth Time Altitude Azimuth
Cosmos 2026 Rocket 4.0 20:53:16 10° S 20:59:19 75° E 21:05:28 10° N
ASTRO E2 4.2 20:57:04 10° WSW 21:00:24 25° SSW 21:03:44 10° SE
Cosmos 332 Rocket 3.8 21:07:13 10° NNW 21:12:03 69° ENE 21:16:53 10° SSE
H-2A R/B 3.1 21:11:17 10° SE 21:15:14 31° ENE 21:19:14 10° N
USA 229 DEB 3.7 21:10:12 10° SSW 21:17:03 70° ESE 21:23:59 10° NE
USA 229 3.7 21:10:19 10° SSW 21:17:09 70° ESE 21:24:05 10° NE
Cosmos 1441 Rocket 3.4 21:16:32 10° S 21:20:11 48° E 21:23:49 10° NNE
Cosmos 540 Rocket 3.7 21:16:01 10° NNW 21:21:12 75° WSW 21:26:19 10° S
Cosmos 1328 Rocket 3.9 21:18:14 10° N 21:22:32 46° E 21:26:47 10° SSE
Cosmos 1655 Rocket 4.3 21:17:03 10° SSW 21:23:15 72° W 21:29:27 10° N
Cosmos 2322 Rocket 2.3 21:21:26 10° NNW 21:27:00 63° ENE 21:32:08 12° SSE
S3M 4.0 21:21:00 10° N 21:27:04 62° E 21:33:07 10° SSE
OAO 2 Rocket 4.3 21:23:00 10° SSW 21:27:28 28° SSE 21:31:56 10° E
Cosmos 1743 Rocket 3.7 21:28:04 10° S 21:32:32 81° W 21:37:01 10° N
Cosmos 2228 Rocket 3.1 21:29:16 10° N 21:33:46 87° E 21:38:17 10° S
Cosmos 2292 4.5 21:33:13 10° N 21:36:11 50° E 21:38:33 17° SSE
In-Cosmos 22 4.3 21:30:37 10° S 21:36:23 85° W 21:42:10 10° N
Cosmos 1980 Rocket 3.5 21:31:17 10° NW 21:36:28 37° WSW 21:41:38 10° S
SL-16 R/B 2.2 21:31:22 10° NNW 21:37:03 73° ENE 21:41:53 14° SSE
Cosmos 2360 Rocket 3.4 21:32:24 10° N 21:37:05 26° ENE 21:40:35 15° ESE
Cosmos 968 Rocket 4.2 21:32:03 10° SSW 21:37:07 58° WNW 21:42:17 10° N
Cosmos 1500 Rocket 3.5 21:34:37 10° S 21:38:57 78° E 21:43:20 10° N
ATLAS CENTAUR R/B 2.0 21:38:25 10° NW 21:42:45 54° WSW 21:46:06 14° S
Cosmos 1908 3.9 21:40:46 10° NNE 21:44:23 36° E 21:46:19 22° SE
Cosmos 371 Rocket 3.4 21:43:16 10° NNW 21:48:05 76° WSW 21:52:11 14° S
ALOS 4.0 21:45:15 10° SSW 21:49:20 30° W 21:53:26 10° NW
deb Chang Zheng 4 3.9 21:45:36 10° N 21:49:55 70° WNW 21:54:14 10° SSW
USA 186 4.1 21:49:17 10° WSW 21:50:21 12° W 21:51:27 10° WNW
Cosmos 1939 Rocket 2.7 21:47:30 18° SSE 21:50:25 76° ENE 21:54:20 10° N
Delta 2 Rocket 2.9 21:51:45 10° W 21:55:20 75° N 21:58:00 15° ENE
Cosmos 1674 2.6 21:53:25 14° S 21:56:37 77° E 22:00:28 10° N
Envisat 3.0 21:53:30 18° SSE 21:57:15 74° ENE 22:02:20 10° N
SPOT 5 2.9 21:55:18 24° SE 21:57:51 54° ENE 22:02:25 10° N
GPS 2-04 Rocket1 3.4 21:56:56 10° W 22:01:08 46° SSW 22:02:52 29° SSE
Cosmos 1833 4.4 21:57:48 10° SSW 22:03:32 76° WNW 22:09:13 10° NNE
ERS-1 Rocket 3.6 21:59:12 10° S 22:04:05 53° W 22:09:01 10° NNW
Tiangong 1 1.0 22:03:52 10° SW 22:06:54 53° SE 22:07:00 53° SE
Meteor 2-2 Rocket 4.4 22:01:31 10° N 22:07:33 90° E 22:12:06 19° S
USA 245 4.3 22:10:34 18° NE 22:10:34 18° NE 22:11:49 10° NNE
Cosmos 1437 2.6 22:08:49 38° S 22:09:55 75° E 22:13:12 10° NNE
Cosmos 1300 4.2 22:08:01 10° NNE 22:11:00 21° ENE 22:11:00 21° ENE
Cosmos 1437 Rocket 2.8 22:07:17 10° NNW 22:11:05 74° W 22:13:00 28° S
Cosmos 1515 Rocket 4.1 22:06:51 10° NNW 22:11:12 57° W 22:14:29 17° SSW
DELTA 2 R/B (1) 4.2 22:06:53 10° WNW 22:12:19 52° NNE 22:16:23 17° E
PSLV R/B 3.0 22:16:12 61° SSE 22:16:41 89° ENE 22:19:46 10° N
Cosmos 2266 Rocket 4.3 22:13:20 10° SSW 22:19:39 70° W 22:25:52 10° N
Sich 1 3.9 22:20:00 32° E 22:20:11 32° E 22:24:08 10° NNE
H-2A R/B 3.0 22:18:35 10° SW 22:18:41 11° SW 22:18:41 11° SW
Cosmos 1633 Rocket 3.9 22:21:04 31° E 22:21:06 31° E 22:24:57 10° NNE
Cosmos 2151 3.0 22:18:32 22° SSW 22:21:12 77° W 22:25:25 10° N
Cosmos 2315 Rocket 4.1 22:16:38 10° N 22:22:45 60° E 22:25:34 32° SSE
COSMOS 2428 3.8 22:17:58 10° N 22:22:55 30° ENE 22:24:46 25° E
YAOGAN 6 2.6 22:23:27 55° ESE 22:23:58 63° ENE 22:27:34 10° N
NOSS 3-1 (C) 3.2 22:18:52 10° SSW 22:24:34 71° ESE 22:30:47 10° NE
Cosmos 405 3.3 22:23:09 10° NNW 22:26:45 64° W 22:27:44 43° SSW
Cosmos 1328 3.9 22:28:08 31° SSW 22:29:53 70° W 22:33:50 10° N
H-2A R/B 3.3 22:29:35 24° E 22:30:43 26° ENE 22:35:04 10° NNE
Cosmos 304 Rocket 3.7 22:26:00 10° NNW 22:30:49 76° ENE 22:32:12 46° SSE
Cosmos 1805 Rocket 3.5 22:33:35 44° S 22:35:00 84° E 22:39:28 10° N
MetOp-A 4.2 22:33:53 32° S 22:36:24 75° WSW 22:41:46 10° NNW
Cosmos 1151 Rocket 3.7 22:32:38 10° NNW 22:36:49 50° W 22:38:40 29° SSW
ARGOS 3.2 22:37:03 43° SE 22:38:41 64° ENE 22:44:02 10° N
Cosmos 2219 Rocket 3.8 22:35:20 10° NNE 22:39:22 20° ENE 22:40:42 19° ENE
Cosmos 1244 Rocket 4.4 22:37:11 29° S 22:40:40 82° E 22:46:59 10° N
SPOT 1/Viking Rocket 3.4 22:41:06 46° SSE 22:42:41 85° ENE 22:47:50 10° NNW
Cosmos 2058 3.2 22:46:02 43° SW 22:47:08 62° W 22:51:12 10° N
Cosmos 1680 Rocket 3.5 22:42:53 10° NNW 22:48:08 76° WSW 22:49:36 48° S
H-2A R/B 4.4 22:48:07 11° SW 22:51:13 20° W 22:54:30 10° NW
Cosmos 2219 3.9 22:48:13 10° SW 22:53:49 53° WNW 22:59:26 10° N
CZ-4B R/B 4.3 22:49:50 10° N 22:54:56 51° WNW 22:58:43 17° SW
Terra 2.6 22:55:46 36° ENE 22:55:46 36° ENE 23:00:06 10° N
SL-14 R/B 3.3 22:56:58 73° WNW 22:56:58 73° WNW 23:00:54 10° N
Cosmos 1666 Rocket 3.6 22:56:36 62° SW 22:57:12 74° W 23:01:37 10° N
Cosmos 1703 4.2 22:58:43 38° NE 22:58:43 38° NE 23:01:23 10° NNE
Cosmos 1898 Rocket 3.3 22:56:18 50° SSW 22:57:41 89° E 23:02:54 10° NNE
Cosmos 1707 Rocket 3.4 22:53:33 10° N 22:57:55 87° W 22:58:03 84° SSW
Cosmos 1745 Rocket 4.1 22:57:28 50° SE 22:58:39 58° E 23:04:42 10° NNE
Cosmos 2150 Rocket 4.0 22:57:10 42° SSW 22:59:05 87° WNW 23:04:35 10° NNE
SL-08 R/B 4.4 22:58:31 50° SSE 23:00:07 71° E 23:06:20 10° N
Cosmos 1726 2.7 22:59:45 10° N 23:02:46 55° N 23:02:46 55° N
Meteor 1-27 4.1 22:58:18 10° N 23:04:00 85° W 23:05:12 57° S
Cosmos 1271 Rocket 3.9 23:00:40 10° N 23:03:14 34° NE 23:03:14 34° NE
Meteor 2-11 Rocket 4.4 22:58:15 10° N 23:04:25 87° W 23:06:04 52° S
Cosmos 2333 4.4 22:59:18 10° N 23:04:56 55° ENE 23:05:40 51° E
Cosmos 858 Rocket 4.4 23:04:03 55° SSW 23:05:13 86° WNW 23:10:27 10° NNE
Cosmos 2082 4.3 23:07:21 41° E 23:07:21 41° E 23:11:54 10° NE
Cosmos 2322 4.3 23:01:13 10° NNW 23:06:44 51° WSW 23:08:14 40° SSW
Cosmos 2237 Rocket 3.7 23:03:29 10° N 23:07:58 23° ENE 23:08:42 23° ENE
Cosmos 1470 Rocket 4.4 23:11:47 41° NE 23:11:47 41° NE 23:14:51 10° NNE
Cosmos 220 Rocket 4.4 23:12:13 55° NNE 23:12:13 55° NNE 23:15:43 10° NNE
OAO 2 Rocket 3.3 23:06:40 10° WSW 23:11:38 73° SSW 23:11:38 73° SSW
Cosmos 1933 Rocket 4.3 23:13:06 43° NE 23:13:06 43° NE 23:16:23 10° NNE
IGS 5A 4.4 23:14:41 41° NE 23:14:41 41° NE 23:17:48 10° N
DMSP B5D2-2 3.9 23:09:54 10° NNE 23:15:07 75° ESE 23:15:09 75° ESE
Cosmos 2360 Rocket 3.2 23:15:59 10° NW 23:21:04 35° WSW 23:22:22 31° SW
NOSS 3-1 (A) 4.1 23:21:53 10° SW 23:27:30 50° NW 23:33:41 10° NNE
Cosmos 1386 Rocket 4.2 23:27:31 72° ESE 23:27:47 73° E 23:33:45 10° N
NOSS 0 Rocket 4.2 23:26:58 10° NNW 23:32:59 53° ENE 23:33:19 52° ENE
USA 32 4.2 23:28:37 10° N 23:33:49 62° W 23:34:02 62° WSW
Meteor 2-10 4.1 23:28:24 10° N 23:34:09 89° E 23:34:15 87° SSE
Meteor 1-4 Rocket 4.3 23:31:56 10° NNW 23:34:10 32° NW 23:34:10 32° NW
Cosmos 1626 4.1 23:40:11 26° N 23:40:11 26° N 23:41:56 10° N
Cosmos 2242 Rocket 4.5 23:35:22 10° NNW 23:39:05 46° WNW 23:39:05 46° WNW
Cosmos 2227 Rocket 2.1 23:42:28 83° NW 23:42:28 83° NW 23:48:03 10° NNE
ATLAS 2AS CENTAUR R/B 2.8 23:48:10 63° SSW 23:49:36 85° ESE 23:57:35 10° NNE
